To NAV CANADA Home Page Login to a new session Search on AWWS site Feedback and Comments Disclaimer Vers la page française équivalente Tips FAQ What's new on the site To the Forecasts and Observations / NOTAM section To "File a Flight Plan" website Publications and other links Update of the User's profile FIC Telephone Numbers My Weather Data Folder Route Weather Data Regional Weather Data Local Weather Data To the Forecasts and Observations / NOTAM section
Request Generated 10/17/2017 at 01:48:44 UTC . Weather information available at that time is displayed.

METAR/TAF

UMIUJAQ/QC    

LWIS CYMU 170100Z AUTO 26007KT 01/M05 A2985=
LWIS CYMU 170000Z AUTO 24009KT 01/M04 A2985=
LWIS CYMU 162300Z AUTO 29008KT 01/M05 A2986=

CYMU - No TAF is issued for this station

Your time UTC time
Weather data provided by Environment Canada and NAV CANADA